Time,TemperatureF,DewpointF,PressureIn,WindDirection,WindDirectionDegrees,WindSpeedMPH,WindSpeedGustMPH,Humidity,HourlyPrecipIn,Conditions,Clouds,dailyrainin,SoftwareType,DateUTC
2013-06-14 00:01:00,67.1,38.6,28.97,SW,234,3.6,3.6,35,0.00,,,0.00,VWS V14.01,2013-06-14 04:01:00,
2013-06-14 00:06:00,67.1,37.8,28.97,NNW,342,0.0,4.0,34,0.00,,,0.00,VWS V14.01,2013-06-14 04:06:00,
2013-06-14 00:11:00,67.3,38.0,28.97,NNW,335,2.2,2.7,34,0.00,,,0.00,VWS V14.01,2013-06-14 04:11:00,
2013-06-14 00:16:00,67.3,38.0,28.97,NNW,331,2.7,3.6,34,0.00,,,0.00,VWS V14.01,2013-06-14 04:16:00,
2013-06-14 00:21:00,67.1,37.1,28.97,NW,320,2.7,3.1,33,0.00,,,0.00,VWS V14.01,2013-06-14 04:21:00,
2013-06-14 00:26:00,67.1,37.1,28.97,ENE,61,2.7,4.0,33,0.00,,,0.00,VWS V14.01,2013-06-14 04:26:00,
2013-06-14 00:31:00,67.1,37.1,28.97,East,93,3.6,3.6,33,0.00,,,0.00,VWS V14.01,2013-06-14 04:31:00,
2013-06-14 00:36:00,67.1,37.1,29.00,NNW,332,0.0,2.2,33,0.00,,,0.00,VWS V14.01,2013-06-14 04:36:00,
2013-06-14 00:41:00,67.1,37.1,29.00,NW,305,3.1,3.1,33,0.00,,,0.00,VWS V14.01,2013-06-14 04:41:00,
2013-06-14 00:46:00,66.9,36.9,29.00,WNW,300,3.1,3.1,33,0.00,,,0.00,VWS V14.01,2013-06-14 04:46:00,
2013-06-14 00:51:00,66.9,36.9,29.00,South,169,3.6,3.6,33,0.00,,,0.00,VWS V14.01,2013-06-14 04:51:00,
2013-06-14 00:56:00,66.9,36.9,29.00,WNW,287,4.0,4.9,33,0.00,,,0.00,VWS V14.01,2013-06-14 04:56:00,
2013-06-14 01:01:00,66.7,36.8,29.00,East,100,3.1,5.4,33,0.00,,,0.00,VWS V14.01,2013-06-14 05:01:00,
2013-06-14 01:06:00,66.7,36.8,29.00,NW,306,4.0,4.0,33,0.00,,,0.00,VWS V14.01,2013-06-14 05:06:00,
2013-06-14 01:11:00,66.7,36.8,29.00,NW,310,5.8,5.8,33,0.00,,,0.00,VWS V14.01,2013-06-14 05:11:00,
2013-06-14 01:16:00,66.6,36.6,29.00,North,1,0.0,3.1,33,0.00,,,0.00,VWS V14.01,2013-06-14 05:16:00,
2013-06-14 01:21:00,66.6,35.8,29.00,NNW,344,4.0,5.8,32,0.00,,,0.00,VWS V14.01,2013-06-14 05:21:00,
2013-06-14 01:26:00,66.6,35.8,29.00,WSW,248,0.0,3.6,32,0.00,,,0.00,VWS V14.01,2013-06-14 05:26:00,
2013-06-14 01:31:00,66.6,35.8,29.00,WNW,297,2.7,3.1,32,0.00,,,0.00,VWS V14.01,2013-06-14 05:31:00,
2013-06-14 01:36:00,66.6,35.8,29.00,North,357,2.7,3.6,32,0.00,,,0.00,VWS V14.01,2013-06-14 05:36:00,
2013-06-14 01:41:00,66.4,34.9,29.00,North,353,2.2,5.8,31,0.00,,,0.00,VWS V14.01,2013-06-14 05:41:00,
2013-06-14 01:46:00,66.4,35.7,29.00,WNW,290,3.6,6.3,32,0.00,,,0.00,VWS V14.01,2013-06-14 05:46:00,
2013-06-14 01:51:00,66.4,34.9,29.00,ENE,59,3.6,3.6,31,0.00,,,0.00,VWS V14.01,2013-06-14 05:51:00,
2013-06-14 01:56:00,66.4,35.7,29.00,NW,320,0.0,5.4,32,0.00,,,0.00,VWS V14.01,2013-06-14 05:56:00,
2013-06-14 02:01:00,66.2,35.5,29.00,West,272,2.2,4.0,32,0.00,,,0.00,VWS V14.01,2013-06-14 06:01:00,
2013-06-14 02:06:00,66.2,35.5,29.00,NNW,342,3.6,4.0,32,0.00,,,0.00,VWS V14.01,2013-06-14 06:06:00,
2013-06-14 02:11:00,66.2,35.5,29.00,SW,216,4.9,4.9,32,0.00,,,0.00,VWS V14.01,2013-06-14 06:11:00,
2013-06-14 02:16:00,66.0,36.1,29.00,NW,314,2.2,3.1,33,0.00,,,0.00,VWS V14.01,2013-06-14 06:16:00,
2013-06-14 02:21:00,66.0,36.1,29.00,SW,235,2.2,8.1,33,0.00,,,0.00,VWS V14.01,2013-06-14 06:21:00,
2013-06-14 02:26:00,66.0,36.1,29.00,North,357,3.1,3.6,33,0.00,,,0.00,VWS V14.01,2013-06-14 06:26:00,
2013-06-14 02:31:00,66.0,36.1,29.00,ENE,59,2.2,6.3,33,0.00,,,0.00,VWS V14.01,2013-06-14 06:31:00,
2013-06-14 02:36:00,65.8,36.0,29.00,NNW,327,3.6,4.0,33,0.00,,,0.00,VWS V14.01,2013-06-14 06:36:00,
2013-06-14 02:41:00,65.8,36.0,29.00,NNW,348,3.6,3.6,33,0.00,,,0.00,VWS V14.01,2013-06-14 06:41:00,
2013-06-14 02:46:00,65.8,36.0,29.00,WNW,298,3.1,3.1,33,0.00,,,0.00,VWS V14.01,2013-06-14 06:46:00,
2013-06-14 02:51:00,65.7,35.8,29.03,North,357,0.0,0.0,33,0.00,,,0.00,VWS V14.01,2013-06-14 06:51:00,
2013-06-14 02:56:00,65.7,35.8,29.03,WNW,298,3.1,3.6,33,0.00,,,0.00,VWS V14.01,2013-06-14 06:56:00,
2013-06-14 03:02:00,65.7,35.8,29.03,NNW,328,2.7,3.6,33,0.00,,,0.00,VWS V14.01,2013-06-14 07:02:00,
2013-06-14 03:07:00,65.5,35.6,29.03,NW,320,2.2,3.6,33,0.00,,,0.00,VWS V14.01,2013-06-14 07:07:00,
2013-06-14 03:12:00,65.5,35.6,29.03,West,279,2.7,2.7,33,0.00,,,0.00,VWS V14.01,2013-06-14 07:12:00,
2013-06-14 03:17:00,65.5,35.6,29.03,NW,309,2.7,2.7,33,0.00,,,0.00,VWS V14.01,2013-06-14 07:17:00,
2013-06-14 03:22:00,65.3,35.5,29.03,NE,38,3.1,3.1,33,0.00,,,0.00,VWS V14.01,2013-06-14 07:22:00,
2013-06-14 03:27:00,65.3,35.5,29.03,West,271,4.0,4.0,33,0.00,,,0.00,VWS V14.01,2013-06-14 07:27:00,
2013-06-14 03:32:00,65.3,35.5,29.03,NNW,331,0.0,5.4,33,0.00,,,0.00,VWS V14.01,2013-06-14 07:32:00,
2013-06-14 03:37:00,65.1,35.3,29.03,NW,314,0.0,0.0,33,0.00,,,0.00,VWS V14.01,2013-06-14 07:37:00,
2013-06-14 03:42:00,65.1,36.1,29.03,NW,321,3.1,3.1,34,0.00,,,0.00,VWS V14.01,2013-06-14 07:42:00,
2013-06-14 03:47:00,64.9,35.9,29.03,NNW,336,2.2,2.2,34,0.00,,,0.00,VWS V14.01,2013-06-14 07:47:00,
2013-06-14 03:52:00,64.8,35.8,29.03,North,353,3.1,3.1,34,0.00,,,0.00,VWS V14.01,2013-06-14 07:52:00,
2013-06-14 03:57:00,64.6,35.6,29.03,NNW,341,3.1,4.0,34,0.00,,,0.00,VWS V14.01,2013-06-14 07:57:00,
2013-06-14 04:02:00,64.4,35.5,29.03,North,10,0.0,4.5,34,0.00,,,0.00,VWS V14.01,2013-06-14 08:02:00,
2013-06-14 04:07:00,64.4,35.5,29.06,NNW,336,2.7,4.0,34,0.00,,,0.00,VWS V14.01,2013-06-14 08:07:00,
2013-06-14 04:12:00,64.4,35.5,29.06,NW,325,3.1,3.1,34,0.00,,,0.00,VWS V14.01,2013-06-14 08:12:00,
2013-06-14 04:17:00,64.2,35.3,29.06,North,1,2.2,5.4,34,0.00,,,0.00,VWS V14.01,2013-06-14 08:17:00,
2013-06-14 04:22:00,64.2,35.3,29.06,NNE,30,3.1,3.1,34,0.00,,,0.00,VWS V14.01,2013-06-14 08:22:00,
2013-06-14 04:27:00,64.2,35.3,29.06,NNW,334,0.0,2.7,34,0.00,,,0.00,VWS V14.01,2013-06-14 08:27:00,
2013-06-14 04:32:00,64.0,35.1,29.06,NNW,337,2.7,3.1,34,0.00,,,0.00,VWS V14.01,2013-06-14 08:32:00,
2013-06-14 04:37:00,64.0,35.9,29.06,WNW,285,2.7,2.7,35,0.00,,,0.00,VWS V14.01,2013-06-14 08:37:00,
2013-06-14 04:42:00,64.0,35.9,29.06,NNW,345,0.0,0.0,35,0.00,,,0.00,VWS V14.01,2013-06-14 08:42:00,
2013-06-14 04:47:00,63.9,35.7,29.06,NW,321,5.8,5.8,35,0.00,,,0.00,VWS V14.01,2013-06-14 08:47:00,
2013-06-14 04:52:00,63.9,35.7,29.06,WNW,287,4.0,4.0,35,0.00,,,0.00,VWS V14.01,2013-06-14 08:52:00,
2013-06-14 04:57:00,63.9,35.7,29.06,South,181,0.0,4.0,35,0.00,,,0.00,VWS V14.01,2013-06-14 08:57:00,
2013-06-14 05:02:00,63.7,35.5,29.06,NNW,329,0.0,4.0,35,0.00,,,0.00,VWS V14.01,2013-06-14 09:02:00,
2013-06-14 05:07:00,63.7,35.5,29.06,NW,309,2.7,3.1,35,0.00,,,0.00,VWS V14.01,2013-06-14 09:07:00,
2013-06-14 05:12:00,63.5,35.4,29.06,NE,54,2.2,3.6,35,0.00,,,0.00,VWS V14.01,2013-06-14 09:12:00,
2013-06-14 05:17:00,63.5,35.4,29.06,NE,45,0.0,2.2,35,0.00,,,0.00,VWS V14.01,2013-06-14 09:17:00,
2013-06-14 05:22:00,63.5,35.4,29.09,WNW,290,4.0,5.4,35,0.00,,,0.00,VWS V14.01,2013-06-14 09:22:00,
2013-06-14 05:27:00,63.5,35.4,29.09,NNW,328,2.7,3.6,35,0.00,,,0.00,VWS V14.01,2013-06-14 09:27:00,
2013-06-14 05:32:00,63.3,35.2,29.09,NNE,12,3.1,3.1,35,0.00,,,0.00,VWS V14.01,2013-06-14 09:32:00,
2013-06-14 05:37:00,63.3,35.2,29.09,WNW,297,0.0,7.6,35,0.00,,,0.00,VWS V14.01,2013-06-14 09:37:00,
2013-06-14 05:42:00,63.1,35.1,29.09,North,8,3.1,3.1,35,0.00,,,0.00,VWS V14.01,2013-06-14 09:42:00,
2013-06-14 05:47:00,63.1,35.1,29.09,NNW,346,3.6,5.4,35,0.00,,,0.00,VWS V14.01,2013-06-14 09:47:00,
2013-06-14 05:52:00,63.1,35.1,29.09,West,270,2.7,3.6,35,0.00,,,0.00,VWS V14.01,2013-06-14 09:52:00,
2013-06-14 05:57:00,63.1,35.1,29.09,NNW,335,3.1,4.9,35,0.00,,,0.00,VWS V14.01,2013-06-14 09:57:00,
2013-06-14 06:02:00,63.1,35.1,29.09,ESE,109,3.6,3.6,35,0.00,,,0.00,VWS V14.01,2013-06-14 10:02:00,
2013-06-14 06:07:00,63.1,35.1,29.09,North,6,3.6,3.6,35,0.00,,,0.00,VWS V14.01,2013-06-14 10:07:00,
2013-06-14 06:12:00,63.1,35.1,29.09,NNW,333,0.0,0.0,35,0.00,,,0.00,VWS V14.01,2013-06-14 10:12:00,
2013-06-14 06:17:00,63.0,34.9,29.09,North,357,2.2,4.9,35,0.00,,,0.00,VWS V14.01,2013-06-14 10:17:00,
2013-06-14 06:22:00,63.0,34.9,29.09,NNW,327,0.0,3.6,35,0.00,,,0.00,VWS V14.01,2013-06-14 10:22:00,
2013-06-14 06:27:00,62.8,35.5,29.09,North,1,0.0,0.0,36,0.00,,,0.00,VWS V14.01,2013-06-14 10:27:00,
2013-06-14 06:32:00,62.6,35.3,29.09,East,81,2.7,4.0,36,0.00,,,0.00,VWS V14.01,2013-06-14 10:32:00,
2013-06-14 06:37:00,62.6,35.3,29.12,North,349,2.7,2.7,36,0.00,,,0.00,VWS V14.01,2013-06-14 10:37:00,
2013-06-14 06:42:00,62.8,35.5,29.12,NNW,338,0.0,0.0,36,0.00,,,0.00,VWS V14.01,2013-06-14 10:42:00,
2013-06-14 06:47:00,62.8,35.5,29.12,North,353,3.6,3.6,36,0.00,,,0.00,VWS V14.01,2013-06-14 10:47:00,
2013-06-14 06:52:00,63.0,35.6,29.12,NW,324,2.2,2.7,36,0.00,,,0.00,VWS V14.01,2013-06-14 10:52:00,
2013-06-14 06:57:00,63.0,35.6,29.12,West,276,3.6,5.4,36,0.00,,,0.00,VWS V14.01,2013-06-14 10:57:00,
2013-06-14 07:02:00,63.1,35.8,29.12,NNW,345,3.1,4.5,36,0.00,,,0.00,VWS V14.01,2013-06-14 11:02:00,
2013-06-14 07:07:00,63.3,35.9,29.12,NW,312,0.0,3.6,36,0.00,,,0.00,VWS V14.01,2013-06-14 11:07:00,
2013-06-14 07:12:00,63.5,36.1,29.12,WNW,291,3.6,3.6,36,0.00,,,0.00,VWS V14.01,2013-06-14 11:12:00,
2013-06-14 07:17:00,63.1,35.1,29.12,NW,325,0.0,3.1,35,0.00,,,0.00,VWS V14.01,2013-06-14 11:17:00,
2013-06-14 07:22:00,63.3,35.9,29.12,West,259,2.7,3.1,36,0.00,,,0.00,VWS V14.01,2013-06-14 11:22:00,
2013-06-14 07:27:00,63.3,35.9,29.12,WSW,246,3.1,5.4,36,0.00,,,0.00,VWS V14.01,2013-06-14 11:27:00,
2013-06-14 07:32:00,63.5,36.1,29.12,North,1,0.0,0.0,36,0.00,,,0.00,VWS V14.01,2013-06-14 11:32:00,
2013-06-14 07:37:00,63.5,36.1,29.15,WSW,258,0.0,0.0,36,0.00,,,0.00,VWS V14.01,2013-06-14 11:37:00,
2013-06-14 07:42:00,63.3,35.9,29.15,WSW,258,0.0,2.7,36,0.00,,,0.00,VWS V14.01,2013-06-14 11:42:00,
2013-06-14 07:47:00,63.1,35.8,29.15,North,350,2.7,4.0,36,0.00,,,0.00,VWS V14.01,2013-06-14 11:47:00,
2013-06-14 07:52:00,63.3,35.9,29.15,North,4,0.0,2.7,36,0.00,,,0.00,VWS V14.01,2013-06-14 11:52:00,
2013-06-14 07:57:00,63.3,35.9,29.15,NNW,343,2.7,3.1,36,0.00,,,0.00,VWS V14.01,2013-06-14 11:57:00,
2013-06-14 08:02:00,63.7,36.2,29.15,WNW,299,2.7,6.3,36,0.00,,,0.00,VWS V14.01,2013-06-14 12:02:00,
2013-06-14 08:07:00,64.4,36.2,29.15,West,276,0.0,0.0,35,0.00,,,0.00,VWS V14.01,2013-06-14 12:07:00,
2013-06-14 08:12:00,64.8,36.5,29.15,North,357,2.2,3.6,35,0.00,,,0.00,VWS V14.01,2013-06-14 12:12:00,
2013-06-14 08:17:00,65.3,37.0,29.15,NW,323,4.0,4.0,35,0.00,,,0.00,VWS V14.01,2013-06-14 12:17:00,
2013-06-14 08:22:00,65.5,36.4,29.15,NW,325,2.2,3.1,34,0.00,,,0.00,VWS V14.01,2013-06-14 12:22:00,
2013-06-14 08:27:00,65.8,36.7,29.15,ENE,74,3.1,5.4,34,0.00,,,0.00,VWS V14.01,2013-06-14 12:27:00,
2013-06-14 08:32:00,66.6,36.6,29.15,NNW,336,4.0,4.0,33,0.00,,,0.00,VWS V14.01,2013-06-14 12:32:00,
2013-06-14 08:37:00,66.7,36.8,29.15,North,353,0.0,6.3,33,0.00,,,0.00,VWS V14.01,2013-06-14 12:37:00,
2013-06-14 08:42:00,67.3,37.2,29.15,North,353,0.0,2.7,33,0.00,,,0.00,VWS V14.01,2013-06-14 12:42:00,
2013-06-14 08:47:00,67.6,36.8,29.15,NE,48,0.0,3.6,32,0.00,,,0.00,VWS V14.01,2013-06-14 12:47:00,
2013-06-14 08:52:00,67.8,36.1,29.18,NW,307,5.8,5.8,31,0.00,,,0.00,VWS V14.01,2013-06-14 12:52:00,
2013-06-14 08:57:00,67.8,36.1,29.18,North,357,4.0,4.0,31,0.00,,,0.00,VWS V14.01,2013-06-14 12:57:00,
2013-06-14 09:02:00,68.0,36.3,29.18,NNW,328,4.0,4.0,31,0.00,,,0.00,VWS V14.01,2013-06-14 13:02:00,
2013-06-14 09:07:00,68.4,35.8,29.18,NNW,341,2.2,4.0,30,0.00,,,0.00,VWS V14.01,2013-06-14 13:07:00,
2013-06-14 09:12:00,68.9,37.8,29.18,West,259,0.0,0.0,32,0.00,,,0.00,VWS V14.01,2013-06-14 13:12:00,
2013-06-14 09:17:00,69.1,36.4,29.18,NW,306,2.7,3.1,30,0.00,,,0.00,VWS V14.01,2013-06-14 13:17:00,
2013-06-14 09:22:00,69.3,35.7,29.18,North,353,2.2,3.6,29,0.00,,,0.00,VWS V14.01,2013-06-14 13:22:00,
2013-06-14 09:27:00,69.3,35.7,29.18,NE,52,2.7,5.4,29,0.00,,,0.00,VWS V14.01,2013-06-14 13:27:00,
2013-06-14 09:32:00,69.1,34.6,29.18,NW,320,4.0,4.0,28,0.00,,,0.00,VWS V14.01,2013-06-14 13:32:00,
2013-06-14 09:37:00,69.3,34.8,29.18,ENE,64,0.0,0.0,28,0.00,,,0.00,VWS V14.01,2013-06-14 13:37:00,
2013-06-14 09:42:00,69.4,35.0,29.18,West,263,0.0,0.0,28,0.00,,,0.00,VWS V14.01,2013-06-14 13:42:00,
2013-06-14 09:47:00,69.6,34.2,29.18,NE,46,0.0,0.0,27,0.00,,,0.00,VWS V14.01,2013-06-14 13:47:00,
2013-06-14 09:52:00,69.4,33.1,29.18,ENE,75,2.7,2.7,26,0.00,,,0.00,VWS V14.01,2013-06-14 13:52:00,
2013-06-14 09:57:00,70.0,33.5,29.18,NE,48,0.0,0.0,26,0.00,,,0.00,VWS V14.01,2013-06-14 13:57:00,
2013-06-14 10:02:00,69.8,32.4,29.18,WNW,284,2.2,2.2,25,0.00,,,0.00,VWS V14.01,2013-06-14 14:02:00,
2013-06-14 10:07:00,70.0,33.5,29.21,SSE,166,0.0,2.7,26,0.00,,,0.00,VWS V14.01,2013-06-14 14:07:00,
2013-06-14 10:13:00,69.6,33.2,29.21,ENE,65,0.0,0.0,26,0.00,,,0.00,VWS V14.01,2013-06-14 14:13:00,
2013-06-14 10:18:00,70.2,33.7,29.21,West,265,2.7,2.7,26,0.00,,,0.00,VWS V14.01,2013-06-14 14:18:00,
2013-06-14 10:23:00,69.8,32.4,29.21,SSE,164,3.1,3.1,25,0.00,,,0.00,VWS V14.01,2013-06-14 14:23:00,
2013-06-14 10:28:00,69.1,31.8,29.21,ENE,58,2.7,2.7,25,0.00,,,0.00,VWS V14.01,2013-06-14 14:28:00,
2013-06-14 10:33:00,69.3,32.9,29.21,WNW,293,3.1,3.1,26,0.00,,,0.00,VWS V14.01,2013-06-14 14:33:00,
2013-06-14 10:38:00,70.2,33.7,29.21,WNW,297,2.2,4.0,26,0.00,,,0.00,VWS V14.01,2013-06-14 14:38:00,
2013-06-14 10:43:00,70.5,34.0,29.21,SSE,164,0.0,0.0,26,0.00,,,0.00,VWS V14.01,2013-06-14 14:43:00,
2013-06-14 10:48:00,71.1,34.5,29.21,SSW,203,0.0,0.0,26,0.00,,,0.00,VWS V14.01,2013-06-14 14:48:00,
2013-06-14 10:53:00,72.0,35.2,29.21,NNE,14,2.7,2.7,26,0.00,,,0.00,VWS V14.01,2013-06-14 14:53:00,
2013-06-14 10:58:00,71.8,33.1,29.21,WSW,243,0.0,0.0,24,0.00,,,0.00,VWS V14.01,2013-06-14 14:58:00,
2013-06-14 11:03:00,71.2,32.6,29.21,WSW,252,2.2,3.1,24,0.00,,,0.00,VWS V14.01,2013-06-14 15:03:00,
2013-06-14 11:08:00,71.8,33.1,29.21,WSW,250,0.0,0.0,24,0.00,,,0.00,VWS V14.01,2013-06-14 15:08:00,
2013-06-14 11:13:00,72.0,33.2,29.21,SSW,211,3.1,3.1,24,0.00,,,0.00,VWS V14.01,2013-06-14 15:13:00,
2013-06-14 11:18:00,71.8,32.0,29.21,NW,321,2.2,3.6,23,0.00,,,0.00,VWS V14.01,2013-06-14 15:18:00,
2013-06-14 11:23:00,72.1,32.3,29.21,SSW,205,0.0,4.0,23,0.00,,,0.00,VWS V14.01,2013-06-14 15:23:00,
2013-06-14 11:28:00,72.5,32.6,29.21,WNW,282,0.0,0.0,23,0.00,,,0.00,VWS V14.01,2013-06-14 15:28:00,
2013-06-14 11:33:00,72.9,34.0,29.21,SSW,213,0.0,2.2,24,0.00,,,0.00,VWS V14.01,2013-06-14 15:33:00,
2013-06-14 11:38:00,72.9,32.9,29.21,WSW,252,2.7,2.7,23,0.00,,,0.00,VWS V14.01,2013-06-14 15:38:00,
2013-06-14 11:43:00,72.5,33.7,29.21,NNW,338,3.1,3.1,24,0.00,,,0.00,VWS V14.01,2013-06-14 15:43:00,
2013-06-14 11:48:00,72.9,34.0,29.21,WSW,258,2.7,2.7,24,0.00,,,0.00,VWS V14.01,2013-06-14 15:48:00,
2013-06-14 11:53:00,73.0,34.1,29.21,NW,325,3.6,3.6,24,0.00,,,0.00,VWS V14.01,2013-06-14 15:53:00,
2013-06-14 11:58:00,72.3,32.5,29.21,NNE,26,0.0,0.0,23,0.00,,,0.00,VWS V14.01,2013-06-14 15:58:00,
2013-06-14 12:03:00,72.5,33.7,29.21,WNW,299,5.8,5.8,24,0.00,,,0.00,VWS V14.01,2013-06-14 16:03:00,
2013-06-14 12:08:00,72.1,33.4,29.21,North,357,2.7,4.0,24,0.00,,,0.00,VWS V14.01,2013-06-14 16:08:00,
2013-06-14 12:13:00,71.8,33.1,29.21,West,273,2.7,2.7,24,0.00,,,0.00,VWS V14.01,2013-06-14 16:13:00,
2013-06-14 12:18:00,72.0,33.2,29.21,South,179,0.0,0.0,24,0.00,,,0.00,VWS V14.01,2013-06-14 16:18:00,
2013-06-14 12:23:00,72.5,33.7,29.21,NNW,337,4.0,4.0,24,0.00,,,0.00,VWS V14.01,2013-06-14 16:23:00,
2013-06-14 12:28:00,72.9,34.0,29.21,WNW,287,0.0,2.2,24,0.00,,,0.00,VWS V14.01,2013-06-14 16:28:00,
2013-06-14 12:33:00,72.9,34.0,29.21,West,265,0.0,0.0,24,0.00,,,0.00,VWS V14.01,2013-06-14 16:33:00,
2013-06-14 12:38:00,72.7,32.8,29.21,NNW,332,3.1,3.1,23,0.00,,,0.00,VWS V14.01,2013-06-14 16:38:00,
2013-06-14 12:43:00,72.7,33.8,29.21,NW,323,3.6,3.6,24,0.00,,,0.00,VWS V14.01,2013-06-14 16:43:00,
2013-06-14 12:48:00,72.7,33.8,29.21,NW,309,4.0,4.0,24,0.00,,,0.00,VWS V14.01,2013-06-14 16:48:00,
2013-06-14 12:53:00,72.9,34.0,29.23,NW,314,3.1,3.1,24,0.00,,,0.00,VWS V14.01,2013-06-14 16:53:00,
2013-06-14 12:58:00,72.9,34.0,29.23,NW,325,4.0,4.0,24,0.00,,,0.00,VWS V14.01,2013-06-14 16:58:00,
2013-06-14 13:03:00,72.9,34.0,29.23,North,353,3.1,3.1,24,0.00,,,0.00,VWS V14.01,2013-06-14 17:03:00,
2013-06-14 13:08:00,72.7,32.8,29.23,NNW,335,2.7,2.7,23,0.00,,,0.00,VWS V14.01,2013-06-14 17:08:00,
2013-06-14 13:13:00,73.2,34.3,29.23,NW,322,2.2,2.7,24,0.00,,,0.00,VWS V14.01,2013-06-14 17:13:00,
2013-06-14 13:18:00,73.6,33.5,29.23,SW,223,0.0,2.2,23,0.00,,,0.00,VWS V14.01,2013-06-14 17:18:00,
2013-06-14 13:23:00,72.9,32.9,29.21,NNW,339,3.1,3.1,23,0.00,,,0.00,VWS V14.01,2013-06-14 17:23:00,
2013-06-14 13:28:00,72.9,34.0,29.21,NNW,343,2.7,2.7,24,0.00,,,0.00,VWS V14.01,2013-06-14 17:28:00,
2013-06-14 13:33:00,73.0,33.1,29.21,West,273,2.7,3.1,23,0.00,,,0.00,VWS V14.01,2013-06-14 17:33:00,
2013-06-14 13:38:00,73.4,33.4,29.23,NNW,341,2.7,2.7,23,0.00,,,0.00,VWS V14.01,2013-06-14 17:38:00,
2013-06-14 13:43:00,73.8,32.6,29.23,NNW,340,3.1,5.8,22,0.00,,,0.00,VWS V14.01,2013-06-14 17:43:00,
2013-06-14 13:48:00,73.8,32.6,29.23,NW,319,2.2,3.6,22,0.00,,,0.00,VWS V14.01,2013-06-14 17:48:00,
2013-06-14 13:53:00,73.9,32.7,29.21,West,266,3.1,3.1,22,0.00,,,0.00,VWS V14.01,2013-06-14 17:53:00,
2013-06-14 13:58:00,73.9,32.7,29.21,West,259,4.0,5.4,22,0.00,,,0.00,VWS V14.01,2013-06-14 17:58:00,
2013-06-14 14:03:00,74.3,33.0,29.21,NNW,336,0.0,3.6,22,0.00,,,0.00,VWS V14.01,2013-06-14 18:03:00,
2013-06-14 14:08:00,74.7,33.3,29.21,NW,306,2.7,2.7,22,0.00,,,0.00,VWS V14.01,2013-06-14 18:08:00,
2013-06-14 14:13:00,74.7,32.2,29.21,NNW,327,0.0,2.2,21,0.00,,,0.00,VWS V14.01,2013-06-14 18:13:00,
2013-06-14 14:18:00,74.5,33.2,29.21,West,278,0.0,0.0,22,0.00,,,0.00,VWS V14.01,2013-06-14 18:18:00,
2013-06-14 14:23:00,74.5,32.0,29.21,NNW,333,0.0,0.0,21,0.00,,,0.00,VWS V14.01,2013-06-14 18:23:00,
2013-06-14 14:28:00,74.7,32.2,29.21,NNW,327,3.1,4.9,21,0.00,,,0.00,VWS V14.01,2013-06-14 18:28:00,
2013-06-14 14:33:00,74.8,32.3,29.21,East,80,2.7,2.7,21,0.00,,,0.00,VWS V14.01,2013-06-14 18:33:00,
2013-06-14 14:38:00,75.0,32.5,29.21,NNW,335,0.0,2.7,21,0.00,,,0.00,VWS V14.01,2013-06-14 18:38:00,
2013-06-14 14:43:00,74.7,32.2,29.21,NNW,335,0.0,0.0,21,0.00,,,0.00,VWS V14.01,2013-06-14 18:43:00,
2013-06-14 14:48:00,74.8,33.5,29.21,NW,308,0.0,0.0,22,0.00,,,0.00,VWS V14.01,2013-06-14 18:48:00,
2013-06-14 14:53:00,75.2,32.6,29.21,ENE,64,0.0,0.0,21,0.00,,,0.00,VWS V14.01,2013-06-14 18:53:00,
2013-06-14 14:58:00,75.2,32.6,29.21,West,274,2.2,2.2,21,0.00,,,0.00,VWS V14.01,2013-06-14 18:58:00,
2013-06-14 15:03:00,75.4,32.8,29.21,South,180,0.0,0.0,21,0.00,,,0.00,VWS V14.01,2013-06-14 19:03:00,
2013-06-14 15:08:00,75.7,33.1,29.21,NNW,329,2.2,2.2,21,0.00,,,0.00,VWS V14.01,2013-06-14 19:08:00,
2013-06-14 15:13:00,75.7,33.1,29.21,NNW,345,3.1,3.1,21,0.00,,,0.00,VWS V14.01,2013-06-14 19:13:00,
2013-06-14 15:18:00,75.9,33.2,29.21,NNE,19,0.0,0.0,21,0.00,,,0.00,VWS V14.01,2013-06-14 19:18:00,
2013-06-14 15:23:00,76.1,33.4,29.21,NNW,334,0.0,0.0,21,0.00,,,0.00,VWS V14.01,2013-06-14 19:23:00,
2013-06-14 15:28:00,76.5,33.7,29.21,North,353,3.1,3.1,21,0.00,,,0.00,VWS V14.01,2013-06-14 19:28:00,
2013-06-14 15:33:00,77.2,33.0,29.21,WNW,294,2.7,4.9,20,0.00,,,0.00,VWS V14.01,2013-06-14 19:33:00,
2013-06-14 15:38:00,77.0,32.9,29.21,NNW,335,0.0,2.7,20,0.00,,,0.00,VWS V14.01,2013-06-14 19:38:00,
2013-06-14 15:43:00,77.2,33.0,29.21,NNW,333,2.7,6.3,20,0.00,,,0.00,VWS V14.01,2013-06-14 19:43:00,
2013-06-14 15:48:00,77.4,33.2,29.21,NNW,345,2.7,3.6,20,0.00,,,0.00,VWS V14.01,2013-06-14 19:48:00,
2013-06-14 15:53:00,77.4,33.2,29.21,NNE,21,0.0,2.2,20,0.00,,,0.00,VWS V14.01,2013-06-14 19:53:00,
2013-06-14 15:58:00,77.2,33.0,29.21,East,81,2.2,2.2,20,0.00,,,0.00,VWS V14.01,2013-06-14 19:58:00,
2013-06-14 16:03:00,76.6,32.6,29.21,WNW,294,4.9,4.9,20,0.00,,,0.00,VWS V14.01,2013-06-14 20:03:00,
2013-06-14 16:08:00,76.1,32.2,29.21,NNE,26,0.0,0.0,20,0.00,,,0.00,VWS V14.01,2013-06-14 20:08:00,
2013-06-14 16:13:00,75.9,32.0,29.21,West,272,2.7,2.7,20,0.00,,,0.00,VWS V14.01,2013-06-14 20:13:00,
2013-06-14 16:18:00,76.3,32.3,29.21,WSW,249,2.2,2.2,20,0.00,,,0.00,VWS V14.01,2013-06-14 20:18:00,
2013-06-14 16:23:00,76.8,30.1,29.21,NE,36,2.7,2.7,18,0.00,,,0.00,VWS V14.01,2013-06-14 20:23:00,
2013-06-14 16:28:00,77.0,30.3,29.21,NW,307,2.2,2.2,18,0.00,,,0.00,VWS V14.01,2013-06-14 20:28:00,
2013-06-14 16:33:00,77.2,30.4,29.21,NNW,341,0.0,0.0,18,0.00,,,0.00,VWS V14.01,2013-06-14 20:33:00,
2013-06-14 16:38:00,77.5,30.7,29.21,WNW,288,3.1,3.1,18,0.00,,,0.00,VWS V14.01,2013-06-14 20:38:00,
2013-06-14 16:43:00,77.9,31.0,29.21,North,2,0.0,0.0,18,0.00,,,0.00,VWS V14.01,2013-06-14 20:43:00,
2013-06-14 16:48:00,77.7,30.9,29.21,WNW,290,3.1,3.1,18,0.00,,,0.00,VWS V14.01,2013-06-14 20:48:00,
2013-06-14 16:53:00,77.2,30.4,29.21,West,277,0.0,0.0,18,0.00,,,0.00,VWS V14.01,2013-06-14 20:53:00,
2013-06-14 16:58:00,77.2,30.4,29.21,East,84,0.0,0.0,18,0.00,,,0.00,VWS V14.01,2013-06-14 20:58:00,
2013-06-14 17:03:00,77.4,30.6,29.21,WNW,302,0.0,0.0,18,0.00,,,0.00,VWS V14.01,2013-06-14 21:03:00,
2013-06-14 17:08:00,77.7,30.9,29.21,NW,324,0.0,0.0,18,0.00,,,0.00,VWS V14.01,2013-06-14 21:08:00,
2013-06-14 17:13:00,77.9,31.0,29.21,NW,320,0.0,0.0,18,0.00,,,0.00,VWS V14.01,2013-06-14 21:13:00,
2013-06-14 17:18:00,78.1,31.2,29.21,North,1,4.9,4.9,18,0.00,,,0.00,VWS V14.01,2013-06-14 21:18:00,
2013-06-14 17:23:00,78.3,31.3,29.21,NNW,345,3.1,3.6,18,0.00,,,0.00,VWS V14.01,2013-06-14 21:23:00,
2013-06-14 17:28:00,77.7,30.9,29.21,NW,308,2.7,4.0,18,0.00,,,0.00,VWS V14.01,2013-06-14 21:28:00,
2013-06-14 17:33:00,77.2,30.4,29.21,NW,311,0.0,0.0,18,0.00,,,0.00,VWS V14.01,2013-06-14 21:33:00,
2013-06-14 17:38:00,77.0,30.3,29.21,NNW,338,0.0,0.0,18,0.00,,,0.00,VWS V14.01,2013-06-14 21:38:00,
2013-06-14 17:43:00,77.0,30.3,29.21,NNW,335,0.0,0.0,18,0.00,,,0.00,VWS V14.01,2013-06-14 21:43:00,
2013-06-14 17:48:00,77.7,33.5,29.21,NW,322,3.1,3.6,20,0.00,,,0.00,VWS V14.01,2013-06-14 21:48:00,
2013-06-14 17:53:00,78.1,31.2,29.21,NNW,345,3.1,3.1,18,0.00,,,0.00,VWS V14.01,2013-06-14 21:53:00,
2013-06-14 17:58:00,77.7,30.9,29.21,NNW,341,0.0,0.0,18,0.00,,,0.00,VWS V14.01,2013-06-14 21:58:00,
2013-06-14 18:03:00,77.5,30.7,29.21,NNW,348,0.0,0.0,18,0.00,,,0.00,VWS V14.01,2013-06-14 22:03:00,
2013-06-14 18:08:00,77.4,30.6,29.21,West,268,0.0,0.0,18,0.00,,,0.00,VWS V14.01,2013-06-14 22:08:00,
2013-06-14 18:13:00,77.7,30.9,29.21,North,0,0.0,0.0,18,0.00,,,0.00,VWS V14.01,2013-06-14 22:13:00,
2013-06-14 18:18:00,78.3,33.9,29.21,NNW,328,0.0,2.7,20,0.00,,,0.00,VWS V14.01,2013-06-14 22:18:00,
2013-06-14 18:23:00,78.1,31.2,29.21,NE,42,0.0,0.0,18,0.00,,,0.00,VWS V14.01,2013-06-14 22:23:00,
2013-06-14 18:28:00,77.9,31.0,29.21,NW,318,0.0,0.0,18,0.00,,,0.00,VWS V14.01,2013-06-14 22:28:00,
2013-06-14 18:33:00,77.0,30.3,29.21,NNW,340,0.0,2.7,18,0.00,,,0.00,VWS V14.01,2013-06-14 22:33:00,
2013-06-14 18:38:00,76.3,29.7,29.21,NNW,348,0.0,0.0,18,0.00,,,0.00,VWS V14.01,2013-06-14 22:38:00,
2013-06-14 18:43:00,76.1,32.2,29.21,North,0,0.0,0.0,20,0.00,,,0.00,VWS V14.01,2013-06-14 22:43:00,
2013-06-14 18:48:00,75.9,32.0,29.21,North,353,0.0,0.0,20,0.00,,,0.00,VWS V14.01,2013-06-14 22:48:00,
2013-06-14 18:53:00,75.7,31.9,29.23,North,3,0.0,0.0,20,0.00,,,0.00,VWS V14.01,2013-06-14 22:53:00,
2013-06-14 18:58:00,75.7,31.9,29.23,North,3,0.0,0.0,20,0.00,,,0.00,VWS V14.01,2013-06-14 22:58:00,
2013-06-14 19:03:00,75.6,31.7,29.23,North,0,0.0,0.0,20,0.00,,,0.00,VWS V14.01,2013-06-14 23:03:00,
2013-06-14 19:08:00,75.9,33.2,29.23,North,0,0.0,0.0,21,0.00,,,0.00,VWS V14.01,2013-06-14 23:08:00,
2013-06-14 19:13:00,76.8,34.0,29.23,North,0,0.0,0.0,21,0.00,,,0.00,VWS V14.01,2013-06-14 23:13:00,
2013-06-14 19:18:00,77.4,34.4,29.23,NNW,338,0.0,0.0,21,0.00,,,0.00,VWS V14.01,2013-06-14 23:18:00,
2013-06-14 19:23:00,77.5,33.3,29.23,NW,326,0.0,0.0,20,0.00,,,0.00,VWS V14.01,2013-06-14 23:23:00,
2013-06-14 19:28:00,77.2,33.0,29.23,SW,232,3.6,3.6,20,0.00,,,0.00,VWS V14.01,2013-06-14 23:28:00,
2013-06-14 19:33:00,76.8,34.0,29.23,West,273,0.0,0.0,21,0.00,,,0.00,VWS V14.01,2013-06-14 23:33:00,
2013-06-14 19:38:00,76.6,33.8,29.23,NW,317,0.0,0.0,21,0.00,,,0.00,VWS V14.01,2013-06-14 23:38:00,
2013-06-14 19:43:00,76.3,33.5,29.23,NW,317,0.0,0.0,21,0.00,,,0.00,VWS V14.01,2013-06-14 23:43:00,
2013-06-14 19:48:00,76.1,33.4,29.23,NW,317,0.0,0.0,21,0.00,,,0.00,VWS V14.01,2013-06-14 23:48:00,
2013-06-14 19:53:00,75.6,32.9,29.23,NW,317,0.0,0.0,21,0.00,,,0.00,VWS V14.01,2013-06-14 23:53:00,
2013-06-14 19:58:00,75.2,32.6,29.23,NW,317,0.0,0.0,21,0.00,,,0.00,VWS V14.01,2013-06-14 23:58:00,
2013-06-14 20:03:00,75.0,33.6,29.23,NW,317,0.0,0.0,22,0.00,,,0.00,VWS V14.01,2013-06-15 00:03:00,
2013-06-14 20:08:00,74.7,33.3,29.23,NW,317,0.0,0.0,22,0.00,,,0.00,VWS V14.01,2013-06-15 00:08:00,
2013-06-14 20:13:00,74.3,33.0,29.23,NW,317,0.0,0.0,22,0.00,,,0.00,VWS V14.01,2013-06-15 00:13:00,
2013-06-14 20:18:00,73.9,32.7,29.23,NW,317,0.0,0.0,22,0.00,,,0.00,VWS V14.01,2013-06-15 00:18:00,
2013-06-14 20:23:00,73.6,32.4,29.23,NW,317,0.0,0.0,22,0.00,,,0.00,VWS V14.01,2013-06-15 00:23:00,
2013-06-14 20:28:00,73.0,33.1,29.23,NW,317,0.0,0.0,23,0.00,,,0.00,VWS V14.01,2013-06-15 00:28:00,
2013-06-14 20:33:00,72.7,33.8,29.26,NW,317,0.0,0.0,24,0.00,,,0.00,VWS V14.01,2013-06-15 00:33:00,
2013-06-14 20:38:00,72.3,33.5,29.26,NW,317,0.0,0.0,24,0.00,,,0.00,VWS V14.01,2013-06-15 00:38:00,
2013-06-14 20:43:00,72.0,33.2,29.26,NW,317,0.0,0.0,24,0.00,,,0.00,VWS V14.01,2013-06-15 00:43:00,
2013-06-14 20:48:00,71.4,33.8,29.26,NW,317,0.0,0.0,25,0.00,,,0.00,VWS V14.01,2013-06-15 00:48:00,
2013-06-14 20:53:00,71.1,33.5,29.26,NW,317,0.0,0.0,25,0.00,,,0.00,VWS V14.01,2013-06-15 00:53:00,
2013-06-14 20:58:00,70.7,34.2,29.26,NW,317,0.0,0.0,26,0.00,,,0.00,VWS V14.01,2013-06-15 00:58:00,
2013-06-14 21:03:00,70.3,34.8,29.26,NW,317,0.0,0.0,27,0.00,,,0.00,VWS V14.01,2013-06-15 01:03:00,
2013-06-14 21:08:00,70.0,34.5,29.26,NW,317,0.0,0.0,27,0.00,,,0.00,VWS V14.01,2013-06-15 01:08:00,
2013-06-14 21:13:00,69.6,35.1,29.26,NW,317,0.0,0.0,28,0.00,,,0.00,VWS V14.01,2013-06-15 01:13:00,
2013-06-14 21:18:00,69.4,36.7,29.23,NW,317,0.0,0.0,30,0.00,,,0.00,VWS V14.01,2013-06-15 01:18:00,
2013-06-14 21:23:00,69.1,37.2,29.23,NW,317,0.0,0.0,31,0.00,,,0.00,VWS V14.01,2013-06-15 01:23:00,
2013-06-14 21:28:00,68.9,37.8,29.23,NW,317,0.0,0.0,32,0.00,,,0.00,VWS V14.01,2013-06-15 01:28:00,
2013-06-14 21:33:00,68.7,37.7,29.26,NW,317,0.0,0.0,32,0.00,,,0.00,VWS V14.01,2013-06-15 01:33:00,
2013-06-14 21:38:00,68.5,37.5,29.26,NW,317,0.0,0.0,32,0.00,,,0.00,VWS V14.01,2013-06-15 01:38:00,
2013-06-14 21:43:00,68.2,37.2,29.26,NW,317,0.0,0.0,32,0.00,,,0.00,VWS V14.01,2013-06-15 01:43:00,
2013-06-14 21:48:00,68.0,37.8,29.26,NW,317,0.0,0.0,33,0.00,,,0.00,VWS V14.01,2013-06-15 01:48:00,
2013-06-14 21:53:00,68.0,37.8,29.26,NNW,327,0.0,0.0,33,0.00,,,0.00,VWS V14.01,2013-06-15 01:53:00,
2013-06-14 21:58:00,68.0,37.8,29.26,NNW,327,0.0,0.0,33,0.00,,,0.00,VWS V14.01,2013-06-15 01:58:00,
2013-06-14 22:03:00,68.2,38.0,29.29,NNW,330,3.1,3.1,33,0.00,,,0.00,VWS V14.01,2013-06-15 02:03:00,
2013-06-14 22:08:00,68.2,38.0,29.29,NNW,344,0.0,0.0,33,0.00,,,0.00,VWS V14.01,2013-06-15 02:08:00,
2013-06-14 22:13:00,68.2,38.0,29.29,NNW,346,0.0,0.0,33,0.00,,,0.00,VWS V14.01,2013-06-15 02:13:00,
2013-06-14 22:18:00,68.0,37.8,29.29,NNW,329,0.0,0.0,33,0.00,,,0.00,VWS V14.01,2013-06-15 02:18:00,
2013-06-14 22:23:00,68.0,37.8,29.29,NNW,329,0.0,0.0,33,0.00,,,0.00,VWS V14.01,2013-06-15 02:23:00,
2013-06-14 22:28:00,68.0,37.8,29.29,NNW,329,0.0,0.0,33,0.00,,,0.00,VWS V14.01,2013-06-15 02:28:00,
2013-06-14 22:33:00,68.0,37.8,29.29,NNW,329,0.0,0.0,33,0.00,,,0.00,VWS V14.01,2013-06-15 02:33:00,
2013-06-14 22:38:00,67.8,37.7,29.29,NNW,335,2.7,2.7,33,0.00,,,0.00,VWS V14.01,2013-06-15 02:38:00,
2013-06-14 22:43:00,67.8,37.7,29.29,NNW,335,0.0,2.7,33,0.00,,,0.00,VWS V14.01,2013-06-15 02:43:00,
2013-06-14 22:48:00,67.8,37.7,29.29,NNW,344,2.2,3.1,33,0.00,,,0.00,VWS V14.01,2013-06-15 02:48:00,
2013-06-14 22:53:00,67.8,37.7,29.29,NNW,341,0.0,0.0,33,0.00,,,0.00,VWS V14.01,2013-06-15 02:53:00,
2013-06-14 22:59:00,67.8,37.7,29.29,NNW,340,0.0,0.0,33,0.00,,,0.00,VWS V14.01,2013-06-15 02:59:00,
2013-06-14 23:04:00,67.6,37.5,29.29,NNW,330,3.1,4.0,33,0.00,,,0.00,VWS V14.01,2013-06-15 03:04:00,
2013-06-14 23:09:00,67.6,37.5,29.29,North,353,3.1,3.1,33,0.00,,,0.00,VWS V14.01,2013-06-15 03:09:00,
2013-06-14 23:14:00,67.5,37.4,29.29,NNW,344,2.2,2.2,33,0.00,,,0.00,VWS V14.01,2013-06-15 03:14:00,
2013-06-14 23:19:00,67.5,37.4,29.29,NNW,341,0.0,3.6,33,0.00,,,0.00,VWS V14.01,2013-06-15 03:19:00,
2013-06-14 23:24:00,67.3,37.2,29.29,WNW,299,2.2,2.2,33,0.00,,,0.00,VWS V14.01,2013-06-15 03:24:00,
2013-06-14 23:29:00,67.5,37.4,29.29,NW,322,0.0,2.2,33,0.00,,,0.00,VWS V14.01,2013-06-15 03:29:00,
2013-06-14 23:34:00,67.3,37.2,29.32,NW,313,3.1,3.1,33,0.00,,,0.00,VWS V14.01,2013-06-15 03:34:00,
2013-06-14 23:39:00,67.3,37.2,29.32,NW,324,0.0,0.0,33,0.00,,,0.00,VWS V14.01,2013-06-15 03:39:00,
2013-06-14 23:44:00,67.3,37.2,29.32,North,357,0.0,0.0,33,0.00,,,0.00,VWS V14.01,2013-06-15 03:44:00,
2013-06-14 23:49:00,67.3,37.2,29.32,NNW,348,0.0,0.0,33,0.00,,,0.00,VWS V14.01,2013-06-15 03:49:00,
2013-06-14 23:54:00,67.1,37.1,29.32,North,0,0.0,0.0,33,0.00,,,0.00,VWS V14.01,2013-06-15 03:54:00,
2013-06-14 23:59:00,66.9,36.9,29.32,NNW,345,2.7,2.7,33,0.00,,,0.00,VWS V14.01,2013-06-15 03:59:00,